Location: Indian Hills
(32.9760°N, 85.9450°W)
Time: 22:32:08
(UTC+00:00)

Cosmos 2084 Rocket - Pass Details

Date: 09 December 2019
Orbit: 572 x 610 km, 62.8° (Epoch: 24 January)

Event Time Altitude Azimuth Distance (km) Brightness Sun altitude
Exits shadow 11:46:14 11° 316° (NW) 1,895 5.5 -10.2°
Maximum altitude 11:50:18 46° 244° (WSW) 810 3.9 -9.4°
Drops below altitude 10° 11:54:30 10° 170° (S) 1,933 6.6 -8.6°
Sets 11:56:48 0° 164° (SSE) 2,826 7.5 -8.1°
